CZ-4C R/B (43462 NORAD) Tracking and Keplerian Element Data

This shows tracking and keplerian element data for the satellite.

Feedback or suggestion? Click here.




ElementValue
Catalog43462
NameCZ-4C R/B
Epoch Orbit322
Epoch Day150.64352039
Epoch Year2018
RAAN92.7772
Inclination98.1136
Eccentricity0.0095944
Argument of Perigee325.9589
Mean Anonmoly36.4859
Mean Motion14.8062768
Decay Rate4.6E-07
L11 43462U 18043B 18150.64352039 .00000046 00000-0 13061-4 0 9997
L22 43462 98.1136 92.7772 0095944 325.9589 36.4859 14.80627680 3229

Live tracking and technical data element details for CZ-4C R/B (NORAD 43462). CZ-4C R/B can be tracked NOW for your location showing map with azimuth and elevation plus other details from your city location.

Track the satellite on the map from your city or location and see movement details for azimuth, elevation, latitude, longitude, range, height, and movement on the map or in text.







IsCatalogInMostPopularTable: catalog: 43462, numindb: 61
Update: records affected: 1



GetName: 43462 CZ-4C R/B

Hit Count: updated at: Tue, 20 Nov 2018 07:18:41 GMT